Погода в Нижневартовске

Погода в Нижневартовске : погода сейчас, прогноз погоды и архив. Всё, что Вы хотите узнать о погоде в Нижневартовске!

Поиск расширенной информации на нашем сайте:

Полезная информация: Смотрите Преобразователь частоты 3,7 кВт на сайте.

Другие новости

Новости СМИ2

Главная страница сайта

Новости сайта

02.10.2013

Напоминаем, что на нашем новом сайте вы можете получить высокодетализированные прогнозы погоды по пунктам России, СНГ и мира (включающие важные для авиации метеовеличины, такие как направление и скорость ветра, видимость, явления погоды, количество и форма облачности, нижняя и верхняя граница облачности), а также ознакомиться с разнообразными материалами по авиационной метеорологии и подборкой полезных ссылок на эту тему.

Сайт Метеоцентр.Азия посвящён разработке технологий оптимизации авиаметеорологического обслуживания, включая проектирование и перспективное создание нескольких автоматизированных авиаметеорологических систем:
- система выпуска высокодетальных прогностических карт явлений погоды для нижнего воздушного пространства по России и ближнему зарубежью;
- система верификации прогнозов TAF (выпускаемых синоптиками официальных АМСГ РФ и ближнего зарубежья) и AUTOTAF (выпускаемых сайтом Метеоцентр.Азия) - выявление ошибок, онлайн-сопоставление с фактической погодой METAR, автоматическое внесение коррективов в прогнозы при резком отклонении фактической погоды от прогноза, подсчёт оправдываемости прогнозов по элементам и в целом;
- система обработки, анализа и отображения авиаметеорологической информации для применения провайдерами метеорологической информации.

Рекомендуем: Отзывы: Горящие туры из кемерово - сезонные скидки.

Погода в Нижневартовске - сегодня

Время (UTC), дата Ветер
(°,м/с) 
Видим.   Явления Облачность Т
(°С)
Тd
(°С)
f(%) Тe
(°С)
Pmin
(гПа)
dP
(гПа)
Po
(мм)
O2
(г/м3)
Тmin Tmax R s Состояние
почвы
21 24.05.17 290 (З) 6000 м  дымка{снег}  10/10 660 м 
[Sc]
+0.2 -1.2 90 -1  1004  0.6  748  301           
00 25.05.17 230 (ЮЗ) 5000 м  дымка{снег}  10/10 100 м 
[St]
+0.1 -1.4 90 -2  1004.7  0.7  748  302           
03 25.05.17 220 (ЮЗ) 20000 м    10/0 верхняя 
[Ci fib]
+1.6 -0.6 85 -1  1004.9  0.2  749  300  +0.1    0.5  равномерный
мокрый или
старый снег
100% 
06 25.05.17 190 (Ю) 20000 м    3/3 600 м 
[Sc]
+4.9 -2.4 59 +4  1005.1  0.3  749  297           
09 25.05.17 170 (Ю) 20000 м    9/3 1000 м верхняя 
[Cu hum|Ci sp]
+8.6 -1.7 48 +8  1004.7  -0.3  749  293           
12 25.05.17 190 (Ю) 20000 м    8/0 средняя, верхняя 
[Ac trans|Ci sp]
+11.1 -6.4 29 +11  1005.8  1.1  749  291           
15 25.05.17 240 (ЮЗ) 20000 м    6/0 верхняя 
[Ci sp]
+8.4 -1.7 49 +8  1007.2  1.4  750  294    +11.4       
18 25.05.17 250 (З) 20000 м    9/0 средняя 
[Ac trans]
+5.5 +1.8 77 +4  1009  1.7  752  297           
21 25.05.17 260 (З) 20000 м    10/5 330 м средняя, верхняя 
[St|Ac trans|Ci sp]
+4.7 +2.7 87 +4  1010.1  1.1  753  298           
00 26.05.17 310 (СЗ) 6-12{13}  10 км  слаб. дождь  10/6 360 м средняя 
[Frnb|Ac trans]
+1.8 -0.1 87 -1  1013.4  3.1  755  302           
03 26.05.17 300 (СЗ) 6-10{12}  20000 м  {дождь}  6/6 1050 м 
[Sc]
+4.6 -4.2 53 +2  1016.8  3.5  758  301  +1.7    0.0    влажная 
06 26.05.17 270 (З) 5-12{12}  20000 м  {дождь}  10/0 средняя 
[Ac trans]
+6.7 -6.3 39 +5  1018.9  2.1  759  299           
09 26.05.17 270 (З) 5-10{12}  20000 м    4/0 средняя 
[Ac trans]
+9.8 -7.4 29 +9  1019.9  1.1  760  296           
12 26.05.17 300 (СЗ) 2{11}  20000 м    10/0 средняя, верхняя 
[Ac trans|Ci sp]
+9 -6.7 32 +9  1020.7  0.8  761  297           
18 26.05.17 200 (Ю) 20000 м    10/0 средняя 
[Ac As]
+8.1 -3 45 +7  1018.7  -1.3  759  297           
03 27.05.17 190 (Ю) 7-10{11}  20000 м  в посл. час ливневой дождь  10/3 600 м кучево-дожд., средняя 
[Cb calv|Ac As]
+7.4 +5.5 88 +5  1009.3  -2.4  752  294  +6.1      мокрая 
18 27.05.17 170 (Ю) 20000 м    10/3 1000 м кучево-дожд., средняя, верхняя 
[Cb calv|Ac trans|Ci fib]
+15 +10 72 +16  1007  750  285           
21 27.05.17 170 (Ю) 20000 м    8/0 средняя, верхняя 
[Ac trans|Ci fib]
+13.1 +9.4 78 +13  1006.1  -0.9  750  287           
00 28.05.17 170 (Ю) 20000 м    10/0 средняя, верхняя 
[Ac trans|Ci fib]
+13.5 +5.9 60 +14  1005.5  -0.6  749  287           
12 28.05.17 160 (Ю) 3{10}  20000 м    10/0 средняя 
[Ac As]
+21.1 +5.8 37 +21  999.2  -0.7  745  278           
15 28.05.17 100 (В) 3{13}  20000 м  в посл. час ливневой дождь  9/4 600 м кучево-дожд., средняя 
[Cb calv|Ac trans]
+17.6 +4.3 41 +18  998.1  -1.1  744  281    +24.2  0.0     
18 28.05.17 120 (ЮВ) 5{11}  20000 м    8/0 средняя 
[Ac trans]
+16.9 +4.5 44 +17  995.3  -2.8  742  281           
21 28.05.17 120 (ЮВ) 20000 м    9/0 средняя 
[Ac trans]
+15.1 +6.7 57 +15  994.2  -1.2  741  282           
00 29.05.17 080 (В) 20000 м    8/0 средняя 
[Ac trans]
+14 +7.7 66 +14  993.1  -1.1  740  282           
15 29.05.17 330 (СЗ) 20000 м    10/10 500 м 
[Sc]
+5.9 +1.7 74 +5  1004.1  0.9  748  295    +15.5       
Время (UTC), дата Ветер
(°,м/с) 
Видим.   Явления Облачность Т
(°С)
Тd
(°С)
f(%) Тe
(°С)
Pmin
(гПа)
dP
(гПа)
Po
(мм)
O2
(г/м3)
Тmin Tmax R s Состояние
почвы

Для получения пояснительной информации подведите курсор к названию столбца.

ПОГОДА в Нижневартовске - архив

Всё, что Вы хотите узнать о погоде в Нижневартовске - удобно и подробно!

Выберите нужную дату (начиная с 1 января 2015* года) и нажмите кнопку "Найти".
Будут отображены архивные сводки погоды по пункту Нижневартовск, начиная с указанной даты.


Отображать данные в формате CSV (для использования в таблицах Excel)


Внимание! Наш архив погоды предназначен исключительно для личного некоммерческого использования в познавательных целях. Если Вам необходимы официальные справки о состоянии погоды (для производственных, юридических, коммерческих и т.п. целей), обращайтесь в органы Росгидромета.

*Примечание: данная дата относится к архиву по метеостанциям СССР (Россия, СНГ, Балтия).
Архив по метеостанциям Зарубежной Европы и Азии (кроме Китая) хранится 10 дней, по другим регионам земного шара (Китай, Африка, Америка, Австралия, Океания) - 1 день.

Нижневартовск - район местоположения метеостанции


Название, широта, долгота, высота метеостанции:
Нижневартовск 60.8°ш. 76.7°д. 44 м над ур. моря [Российская Федерация]

Дополнительная информация

В oтличие oт бoльшинства пoгoдных сайтoв мы публикуем пoдрoбную метеoинфoрмацию в детальнoм прoфессиoнальнoм фoрмате.

Характеристики температуры и влажнoсти вoздуха измеряются на высoте 2 м в тени вдали oт зданий и деревьев.
Скoрoсть ветра измеряется на высoте 10 м (на урoвне рoста челoвека скoрoсть ветра ниже в 1.5-2 раза). Если метеoстанция нахoдится в гoрoде или в лесу, тo скoрoсть ветра занижена на 2-4 м/с пo сравнению с oткрытым местoм. Скoрoсть ветра над акватoриями крупных рек и oзёр, а также на вершинах хoлмoв на 2-5 м/с выше, чем в oбычных услoвиях.
Атмoсфернoе давление в разных тoчках местнoсти мoжет значительнo oтличаться oт давления на метеoстанции, в зависимoсти oт услoвий рельефа (при пoдъёме на 10 м давление пoнижается примернo на 1 мм рт.ст.).